Location: Killam
(52.7910°N, 111.8608°W)
Time: 05:38:42
(UTC+00:00)

Gurwin Techsat 1B - Pass Details

Date: 22 March 2026
Orbit: 809 x 812 km, 99.0° (Epoch: 15 April)

Event Time Altitude Azimuth Distance (km) Brightness Sun altitude
Rises 11:23:22 0° 26° (NNE) 3,342 12.7 -18.5°
Reaches altitude 10° 11:26:26 10° 44° (NE) 2,405 12.2 -18.1°
Maximum altitude 11:30:09 19° 89° (E) 1,848 11.3 -17.6°
Drops below altitude 10° 11:33:51 10° 133° (SE) 2,392 11.3 -17.0°
Sets 11:36:52 0° 151° (SSE) 3,318 11.9 -16.6°
